CZ-6A DEB

Satellite information

Favourite Embed

Satellite Type and Status

DEBRISIN ORBIT

Key statistics

Satellite CZ-6A DEB at a glance.

Uptime

1128

Days in orbit

Revolutions

≈ 14.4

Per day

Orbit

SSO

Sun Synchronous Orbit

Inclination

98.6

Latest

Satellite identification and parameters

Extended collection of information and parameters for CZ-6A DEB.

Object identification

Identified? True

Debris? True

Object name: CZ-6A DEB

International designator: 2022-151CT

Object number (NORAD): 54348

Object ID (CCSDS): 54348

Country: PEOPLES REPUBLIC OF CHINA (PRC)

Current information (Y/N): Y

RCS size: SMALL

Orbital parameters

Period: 100.302 minutes

Inclination: 98.6453 deg

SMA: 7150.981 km

Apoapsis: 844.83 km

Periapsis: 700.861 km

RAAN: 9.3143 deg

Eccentricy: 0.01006633

Argument of periapsis: 233.5477 deg

Mean anomaly: 125.6398 deg

Mean motion: 14.35669157 rev/day

Mean motion (dot): 0.00002054 rev/day2

B* drag term: 0.00068706 1/REarth

Two-line elements (TLE)

Creation date: Dec. 12, 2025, 10:14 a.m.

Reference frame: TEME

Reference center: EARTH

Epoch: Dec. 12, 2025, 1:20 a.m. UTC

TLE line 0: 0 CZ-6A DEB

TLE line 1: 1 54348U 22151CT 25346.05591025 .00002054 00000-0 68706-3 0 9993

TLE line 2: 2 54348 98.6453 9.3143 0100663 233.5477 125.6398 14.35669157160736

Live tracking on map

Real-time ground track for satellite CZ-6A DEB.

In-orbit conjunctions

A list of the most updated potential collisions computed for object CZ-6A DEB.

Target Orbit TCA Probability of collision Miss distance Type
FENGYUN 1C DEB SSO 2024-11-09 19:42:28 0.007081637 33.0 (m) DEBRIS
NOAA 16 DEB SSO 2024-09-27 00:07:46 0.0002645708 566.0 (m) DEBRIS

Associated space launch

Chinese satellite reported for atmospheric/ocean/environmental/spatial parameter research purposes, details TBD.

CZ-6A DEB was lifted into orbit during the mission ‘Long March 6A | Yunhai 3’, on board a Long March 6A space rocket.

The launch took place on Nov. 11, 2022, 10:52 p.m. from Launch Complex 9A.

For more information about the launch, click the button.

Launch to space Long March 6A | Yunhai 3
Long March 6A | Yunhai 3

Agency: N/A

Status: Launch Successful

Launch date: Nov. 11, 2022, 10:52 p.m. UTC

Rocket: Long March 6A

Launch pad: Launch Complex 9A

Location: Taiyuan Satellite Launch Center, People's Republic of China

...

Latest news about this satellite

There are no fresh news available about this satellite. Check back as we update our databases every day.


Newsletter sign-up

Weekly statistics, charts and insights to help you stay on top of the space industry.